Location: Gebenbach
(49.5378°N, 11.8735°E)
Time: 11:29:41
(UTC+00:00)

FALCON 9 DEB - Pass Details

Date: 29 October 2020
Orbit: 379 x 394 km, 53.0° (Epoch: 24 November)

Event Time Altitude Azimuth Distance (km) Brightness Sun altitude
Rises 16:27:06 0° 233° (SW) 2,292 8.3 -5.8°
Reaches altitude 10° 16:29:11 10° 229° (SW) 1,435 6.9 -6.1°
Maximum altitude 16:32:20 56° 151° (SSE) 473 3.2 -6.6°
Drops below altitude 10° 16:35:29 10° 72° (ENE) 1,431 5.1 -7.1°
Enters shadow 16:35:35 - 71° (ENE) 1,470 5.1 -7.1°
